GEFSSGP_850_meantemp_222.txt.gz
Temperature
15 15 15 16 13 12 14 15 15 16 17 18 19 18 17 17 18 19 18 19 19 18 18 18 17 17 16 16 16 16 16 16 16 16 16 16 16 16 16 16 16 16 16 16 15 15 15 15 15
15 15 15 15 12 14 15 15 15 16 18 18 19 18 18 18 18 18 18 18 18 18 18 18 17 17 16 16 16 16 16 16 16 16 16 16 16 16 16 16 16 16 16 15 15 15 15 15 15
15 15 15 12 12 13 16 16 15 16 18 18 18 18 18 18 18 18 18 18 18 18 18 18 17 17 16 16 16 16 16 16 16 16 16 16 16 16 16 16 16 15 15 15 15 15 15 15 15
15 15 14 12 13 13 14 16 15 15 17 18 18 17 17 18 18 18 18 18 18 18 18 17 17 17 16 16 16 16 16 16 16 16 16 16 16 16 15 15 15 15 15 15 15 15 15 15 15
14 14 12 12 13 13 13 15 16 16 16 17 17 16 17 17 18 18 18 18 18 18 17 17 17 16 16 16 16 16 16 16 16 16 16 15 15 15 15 15 15 15 15 15 15 15 15 15 14
14 12 11 12 13 13 14 15 16 15 15 16 17 16 17 17 18 18 18 18 17 17 17 17 16 16 16 16 16 16 15 15 15 15 15 15 15 15 15 15 15 15 15 15 15 14 14 14 14
13 11 12 12 13 14 15 16 15 15 15 16 17 16 16 17 17 17 17 17 17 17 17 16 16 16 16 16 16 15 15 15 15 15 15 15 15 15 15 15 15 14 14 14 14 14 14 14 14
14 11 12 12 13 14 15 16 16 16 16 17 17 15 16 17 17 17 17 17 16 16 16 16 16 16 16 16 15 15 15 15 15 15 15 15 14 14 14 14 14 14 14 14 14 14 14 14 14
13 11 11 12 13 14 15 15 16 16 16 16 16 17 17 17 17 17 17 16 16 16 16 16 16 16 15 15 15 15 15 15 15 15 15 14 14 14 14 14 14 14 14 14 14 14 13 14 14
12 11 12 13 13 14 14 14 15 15 14 15 16 16 17 17 16 16 17 16 16 16 16 16 15 15 15 15 15 15 15 15 15 14 14 14 14 14 14 14 14 14 14 14 13 13 13 13 13
11 11 12 13 14 14 14 14 14 14 14 15 16 16 16 16 16 16 16 16 16 16 16 15 15 15 15 15 15 15 15 14 14 14 14 14 14 14 14 14 14 14 13 13 13 13 13 13 13
11 11 12 13 14 14 13 13 13 13 15 16 16 16 16 16 16 16 16 16 16 16 16 15 15 15 15 15 15 15 14 14 14 14 14 14 14 13 13 13 13 13 13 13 13 13 13 13 13
10 11 12 13 13 13 13 12 13 13 15 15 15 15 16 16 16 16 16 16 16 16 15 15 15 15 15 15 15 14 14 14 14 14 13 13 13 13 13 13 13 13 13 13 13 13 13 13 13
11 11 11 12 12 13 12 12 12 13 15 15 15 15 15 15 16 15 15 16 16 15 15 15 15 15 15 14 14 14 14 14 14 13 13 13 13 13 13 13 13 13 13 13 13 12 12 12 12
11 10 10 11 11 12 12 11 11 14 14 14 15 15 15 15 15 15 15 15 15 15 15 15 15 15 14 14 14 14 14 14 13 13 13 13 12 12 12 12 12 12 12 12 12 12 12 12 12
10 10 10 11 11 11 12 11 12 14 13 13 14 14 15 15 15 15 15 15 15 15 15 15 15 14 14 14 14 14 13 13 13 13 13 12 12 12 12 12 12 12 12 12 12 12 12 12 11
9 9 9 10 11 11 11 10 11 13 12 12 13 13 14 14 15 15 15 15 15 15 15 15 14 14 14 14 14 13 13 13 12 12 12 12 12 12 12 11 11 11 11 11 11 11 11 11 11
9 8 9 9 10 10 10 9 10 12 11 11 12 13 13 14 15 15 15 15 15 15 14 14 14 14 14 14 13 13 13 12 12 12 12 12 11 11 11 11 11 11 11 11 11 11 11 11 11
9 8 9 9 10 10 9 9 10 10 10 10 11 12 13 14 14 14 14 14 14 14 14 14 14 14 14 13 13 13 12 12 12 12 12 11 11 11 11 11 11 11 10 10 10 10 10 10 10
9 9 9 9 10 10 9 9 9 9 9 10 11 12 12 13 13 14 14 14 14 14 14 14 14 13 13 13 13 13 12 12 12 11 11 11 11 11 11 11 10 10 10 10 10 10 10 9 9
8 8 8 9 9 9 9 9 9 9 10 10 11 12 12 13 13 13 14 14 14 14 14 14 13 13 13 13 12 12 12 12 11 11 11 11 11 10 10 10 10 10 10 9 9 9 9 9 8
8 9 9 9 8 8 9 8 9 9 9 9 10 11 12 12 13 13 13 13 13 13 13 13 13 13 13 12 12 12 12 12 11 11 11 10 10 10 10 9 9 9 9 9 9 9 8 8 8
8 9 9 8 8 7 7 8 8 8 9 10 9 10 11 12 13 13 13 13 13 13 13 13 13 12 12 12 12 12 11 11 11 11 10 10 10 9 9 9 9 9 9 8 8 8 8 8 7
8 8 8 7 7 7 7 7 8 8 9 10 9 10 11 12 12 12 12 12 12 12 12 12 12 12 12 11 11 11 11 11 10 10 10 10 9 9 9 8 8 8 8 8 8 8 7 7 7
8 8 7 7 7 7 7 7 8 9 9 9 9 10 11 11 12 12 12 12 12 12 12 12 12 12 11 11 11 11 10 10 10 10 9 9 9 9 8 8 8 8 8 7 7 7 7 7 6
8 8 8 8 7 7 7 7 8 8 8 9 10 10 10 11 11 11 12 12 11 11 11 11 11 11 11 11 10 10 10 10 9 9 9 9 8 8 8 7 7 7 7 7 7 7 6 6 6
7 7 8 7 6 6 6 6 7 8 8 8 8 9 10 10 11 11 11 11 11 11 11 11 11 10 10 10 10 10 9 9 9 8 8 8 8 7 7 7 7 7 7 7 6 6 6 6 5
8 7 6 7 7 7 7 7 8 9 8 8 7 8 9 10 10 10 10 10 10 10 10 10 10 10 10 9 9 9 9 9 8 8 8 7 7 7 7 7 6 6 6 6 6 6 5 5 5
7 7 7 6 6 6 7 8 8 8 8 8 7 8 9 10 10 10 10 10 10 10 10 10 10 9 9 9 9 8 8 8 8 7 7 7 7 7 6 6 6 6 6 6 5 5 5 5 5
7 7 6 6 6 5 5 7 9 7 7 7 7 8 9 9 9 10 9 9 10 10 9 9 9 9 9 8 8 8 7 7 7 7 7 6 6 6 6 6 5 5 5 5 5 5 4 4 4

GEFSSGP_850_meantemp_228.txt.gz
Temperature
15 15 16 16 20 21 23 23 22 22 22 21 21 22 23 24 24 22 18 18 18 18 17 17 17 17 16 16 16 16 16 16 16 16 16 16 16 16 16 16 16 16 16 16 16 15 15 15 16
15 15 15 18 21 22 23 22 22 22 21 20 20 21 22 21 20 18 18 18 18 17 17 17 17 17 16 16 16 16 16 16 16 16 16 16 16 16 16 16 16 16 16 16 15 15 15 15 15
15 15 17 20 21 22 23 22 22 21 20 20 21 20 21 20 18 18 17 18 17 17 17 17 17 17 16 16 16 16 16 16 16 16 16 16 16 16 16 16 16 15 15 15 15 15 15 15 15
14 16 18 20 21 21 22 22 21 21 20 19 20 21 19 17 17 17 18 17 17 17 16 17 17 17 16 16 16 16 16 16 16 16 16 16 16 15 15 15 15 15 15 15 15 15 15 15 15
15 17 19 20 20 20 21 20 19 21 21 20 20 21 19 17 17 17 17 17 17 17 16 17 17 16 16 16 16 16 16 16 16 15 15 15 15 15 15 15 15 15 15 15 15 15 15 15 15
16 18 20 20 20 20 20 19 19 21 21 20 20 21 19 17 17 17 17 17 17 17 16 16 16 16 16 16 16 15 15 15 15 15 15 15 15 15 15 15 15 15 15 15 14 14 14 14 14
17 18 19 20 20 20 20 19 20 21 21 20 19 21 19 17 17 17 17 16 16 16 16 16 16 16 16 16 15 15 15 15 15 15 15 15 15 15 15 15 15 14 14 14 14 14 14 14 14
15 18 18 19 19 19 19 18 18 19 20 18 18 20 19 17 16 16 16 16 16 16 16 16 15 15 15 15 15 15 15 15 15 15 15 14 14 14 14 14 14 14 14 14 14 14 14 14 14
14 17 18 19 19 19 18 18 17 16 17 17 17 18 17 16 16 16 16 16 16 16 16 16 15 15 15 15 15 15 15 15 15 14 14 14 14 14 14 14 14 14 14 14 14 14 14 14 14
15 17 18 18 18 18 18 18 17 17 18 18 17 16 16 16 16 16 16 16 16 16 16 16 15 15 15 15 14 14 14 14 14 14 14 14 14 14 14 14 14 14 14 14 14 13 13 13 13
16 16 17 16 16 16 17 17 16 18 19 19 18 16 16 15 15 15 16 16 16 16 16 16 15 15 15 15 14 14 14 14 14 14 14 13 13 13 13 13 13 13 13 13 13 13 13 13 13
15 15 15 16 14 15 16 16 16 17 18 17 16 16 15 15 15 15 16 16 15 15 16 16 15 15 15 15 14 14 14 14 14 14 14 13 13 13 13 13 13 13 13 13 13 13 13 13 13
15 15 14 14 14 14 14 15 16 16 15 15 15 15 15 15 15 15 15 15 15 15 15 15 15 15 15 15 14 14 14 14 14 14 14 13 13 13 13 13 13 13 13 13 13 13 13 13 12
14 14 14 14 14 14 15 15 15 16 15 15 14 15 15 15 15 15 15 15 15 15 15 15 15 15 15 15 14 14 14 14 14 14 14 13 13 13 13 13 13 12 12 12 12 12 12 12 12
13 14 14 14 14 14 14 15 16 15 14 15 15 15 14 14 14 14 15 15 15 15 15 15 15 15 15 14 14 14 14 14 14 13 13 13 13 13 13 12 12 12 12 12 12 12 12 12 12
13 14 14 15 14 14 14 16 17 15 15 15 15 15 14 14 14 14 14 14 14 15 15 15 15 15 15 14 14 14 14 13 13 13 13 13 13 12 12 12 12 12 12 12 12 11 11 11 11
13 14 15 15 14 14 14 16 17 14 14 15 15 15 15 14 14 14 14 14 14 14 14 15 15 15 14 14 14 13 13 13 13 13 13 12 12 12 12 12 12 12 11 11 11 11 11 11 11
14 14 14 15 14 14 14 15 16 15 14 15 15 15 14 14 14 14 14 14 14 14 14 14 14 14 14 14 13 13 13 13 12 12 12 12 12 12 12 11 11 11 11 11 11 11 11 10 10
14 14 14 14 13 13 14 15 16 16 15 15 15 15 14 14 13 13 13 13 13 14 14 14 14 14 14 13 13 13 13 12 12 12 12 12 12 11 11 11 11 11 10 10 10 10 10 10 10
13 13 14 13 13 13 14 14 16 15 15 15 15 15 14 14 13 13 13 13 13 13 14 14 14 13 13 13 13 13 13 12 12 12 12 11 11 11 11 11 11 10 10 10 10 10 9 9 9
12 13 13 13 12 12 13 15 16 15 14 14 13 13 13 13 13 12 12 12 13 13 13 13 13 13 13 13 13 12 12 12 11 11 11 11 11 11 11 10 10 10 10 10 9 9 9 9 8
12 12 12 12 12 13 13 14 16 16 15 14 14 13 13 12 12 12 12 12 12 13 13 13 13 13 12 12 12 12 12 11 11 11 11 11 10 10 10 10 10 9 9 9 9 9 8 8 8
12 12 12 12 12 12 12 12 16 15 15 15 15 14 13 12 12 12 12 12 12 12 12 12 12 12 12 12 12 12 11 11 11 10 10 10 10 10 10 10 9 9 9 9 8 8 8 7 7
11 11 11 11 11 11 13 13 15 16 15 15 15 13 12 12 11 11 11 11 11 12 12 12 12 12 12 12 11 11 11 11 10 10 10 9 9 9 9 9 9 8 8 8 8 7 7 7 7
11 10 10 10 10 12 13 12 15 15 14 14 14 13 12 11 11 11 11 11 11 11 12 11 11 11 11 11 11 11 10 10 10 10 9 9 9 9 9 8 8 8 8 8 7 7 7 7 6
11 11 12 12 13 13 11 12 15 14 13 13 12 12 11 11 11 10 10 10 10 11 11 11 11 11 11 10 10 10 10 10 10 10 9 9 8 8 8 8 8 7 7 7 7 7 6 6 6
10 10 12 12 11 12 13 13 13 13 12 12 12 12 11 11 10 10 10 10 10 10 10 10 10 10 10 10 10 10 10 9 9 9 9 8 8 8 8 7 7 7 7 7 7 6 6 6 5
10 11 10 10 10 12 13 13 14 14 13 13 12 12 11 10 10 9 10 10 10 10 10 10 10 10 10 9 9 9 9 9 9 9 8 8 8 7 7 7 7 7 6 6 6 6 5 5 5
9 9 10 10 11 12 13 14 14 14 13 13 13 11 11 10 9 9 9 9 9 9 9 9 9 9 9 9 9 9 9 8 8 8 8 7 7 7 7 6 6 6 6 6 6 5 5 5 4
10 10 10 10 9 10 12 13 13 12 12 12 12 11 10 9 9 9 9 8 8 8 8 9 9 8 8 8 8 8 8 8 7 7 7 7 7 6 6 6 6 6 6 5 5 5 5 4 4

GEFSSGP_850_meantemp_234.txt.gz
Temperature
16 17 17 17 18 18 20 23 25 25 25 25 25 25 24 23 22 20 19 18 18 19 19 18 18 18 17 17 17 17 17 17 17 17 16 16 16 16 16 16 16 16 16 16 16 16 15 16 16
16 16 17 18 18 19 21 23 25 25 25 24 24 24 24 22 21 19 18 18 18 18 18 18 18 17 17 17 17 17 17 17 16 16 16 16 16 16 16 16 16 16 16 16 15 15 16 15 15
16 16 18 18 19 20 23 24 24 24 24 24 24 24 23 22 20 19 18 18 18 18 18 18 17 17 17 17 17 16 16 16 16 16 16 16 16 16 16 16 16 16 16 15 15 15 15 15 15
15 16 18 18 20 22 23 24 24 23 24 23 23 23 21 20 20 19 18 18 18 17 18 18 17 17 17 16 16 16 16 16 16 16 16 16 16 16 16 15 15 15 15 15 15 15 15 15 15
16 17 18 18 20 22 24 24 24 23 23 23 23 22 20 19 19 19 18 18 17 17 17 17 17 17 16 16 16 16 16 16 16 15 15 15 15 15 15 15 15 15 15 15 15 15 15 15 15
16 18 18 19 21 22 23 24 23 23 23 24 23 22 19 19 19 18 18 18 17 17 17 17 17 17 16 16 16 16 16 15 15 15 15 15 15 15 15 15 15 15 15 15 15 15 15 15 15
17 17 18 20 21 22 23 23 23 23 22 23 23 21 19 18 18 18 18 17 17 17 17 17 16 16 16 16 16 16 16 15 15 15 15 15 15 15 15 15 15 15 15 15 15 15 14 14 14
16 17 18 19 21 22 23 23 22 22 22 22 22 21 19 18 18 18 18 17 17 16 16 16 16 16 16 16 16 15 15 15 15 15 15 15 15 15 14 14 14 15 15 14 14 14 14 14 14
16 16 17 20 21 21 22 21 21 21 21 21 21 20 19 18 18 18 17 17 17 16 16 16 16 16 16 15 15 15 15 15 15 15 15 14 14 14 14 14 14 14 14 14 14 14 14 14 14
16 15 18 20 20 21 21 21 21 20 20 20 20 19 19 18 17 17 17 17 17 16 16 16 16 15 15 15 15 15 15 15 14 14 14 14 14 14 14 14 14 14 14 14 14 14 14 14 14
16 16 18 19 20 20 20 20 20 20 19 20 20 19 18 18 17 17 17 17 17 16 16 16 15 15 15 15 15 15 15 14 14 14 14 14 14 14 14 14 14 14 14 14 14 14 13 13 13
17 17 18 19 18 18 19 19 19 19 20 20 19 19 18 17 17 17 17 17 17 16 16 16 15 15 15 15 15 14 14 14 14 14 14 14 14 13 13 13 13 13 13 13 13 13 13 13 13
16 17 18 18 17 17 17 18 18 18 18 19 18 18 18 17 17 17 17 17 17 16 16 16 15 15 15 15 14 14 14 14 14 14 14 14 14 13 13 13 13 13 13 13 13 13 13 13 13
17 17 17 17 17 17 17 17 17 18 18 18 18 17 17 17 17 17 17 17 17 16 16 16 16 15 15 15 14 14 14 14 14 14 14 13 13 13 13 13 13 13 13 13 13 13 12 12 12
16 16 16 16 17 17 16 15 16 18 18 18 17 17 17 17 17 17 17 17 16 16 16 16 15 15 15 15 14 14 14 14 14 14 13 13 13 13 13 13 13 12 12 12 12 12 12 12 12
15 15 14 16 16 16 15 14 17 18 18 18 18 17 17 17 17 17 17 16 16 16 16 15 15 15 15 14 14 14 14 14 14 13 13 13 13 13 13 12 12 12 12 12 12 12 12 12 12
14 14 15 16 16 16 15 15 17 18 18 17 18 18 17 17 17 17 16 16 16 16 15 15 15 15 14 14 14 14 14 13 13 13 13 13 13 13 12 12 12 12 12 12 11 11 11 11 11
14 14 15 16 16 16 15 15 17 18 18 18 18 18 18 17 17 16 16 16 15 15 15 15 15 14 14 14 13 13 13 13 13 13 13 13 12 12 12 12 12 11 11 11 11 11 11 11 11
15 15 16 16 16 15 15 15 16 17 17 17 18 18 17 17 16 16 15 15 15 15 15 14 14 14 14 13 13 13 13 13 12 12 12 12 12 12 12 12 12 11 11 11 11 11 10 10 10
14 14 15 15 15 15 14 15 16 16 16 17 17 17 17 17 16 15 15 15 14 14 14 14 14 14 13 13 13 13 13 12 12 12 12 12 12 12 12 11 11 11 11 11 10 10 10 10 9
14 13 14 15 14 14 14 14 15 16 17 17 17 17 17 16 16 15 15 14 14 14 14 14 14 13 13 13 12 12 12 12 12 12 12 12 12 11 11 11 11 11 10 10 10 10 9 9 9
13 14 14 14 13 12 13 12 15 15 15 15 16 16 16 15 15 14 14 14 14 13 13 13 13 13 13 12 12 12 12 12 12 12 12 11 11 11 11 11 11 10 10 10 9 9 9 9 8
13 14 14 13 12 12 13 12 13 15 15 15 15 16 15 15 15 14 14 13 13 13 13 13 13 13 12 12 12 12 12 12 11 11 11 11 11 11 10 10 10 10 9 9 9 9 8 8 8
13 13 12 12 11 10 12 12 13 15 15 15 15 15 15 15 14 13 13 13 13 13 13 12 12 12 12 12 12 12 11 11 11 11 10 10 10 10 10 10 10 9 9 9 9 8 8 8 7
12 10 9 9 9 10 13 13 13 15 16 15 15 15 15 14 14 13 13 12 12 12 12 12 12 12 12 11 11 11 11 11 11 11 10 10 10 10 10 9 9 9 9 8 8 8 8 7 7
10 10 10 10 10 11 13 12 14 15 15 15 15 15 14 14 13 13 12 12 12 11 11 11 11 11 11 11 11 11 11 10 10 10 10 9 9 9 9 9 9 8 8 8 8 7 7 7 7
10 10 12 11 11 11 12 13 14 14 14 14 14 14 13 13 13 12 12 11 11 11 11 11 11 11 11 11 10 10 10 10 10 9 9 9 9 9 9 8 8 8 8 7 7 7 7 6 6
11 11 10 9 9 10 12 13 12 12 13 13 12 12 13 12 12 12 11 11 11 11 11 11 11 10 10 10 10 10 9 9 9 9 9 9 8 8 8 8 8 7 7 7 7 6 6 6 6
9 10 10 9 10 10 11 12 14 13 13 12 12 13 12 12 12 11 11 10 10 10 10 10 10 10 9 9 9 9 9 9 9 8 8 8 8 8 8 7 7 7 6 6 6 6 6 5 5
9 9 9 9 9 10 10 11 13 12 12 12 12 12 12 12 11 11 10 10 10 10 9 9 9 9 9 9 8 8 8 8 8 8 8 7 7 7 7 7 6 6 6 6 6 5 5 5 5

GEFSSGP_850_meantemp_240.txt.gz
Temperature
15 16 16 16 14 13 15 16 18 19 20 21 21 20 19 19 19 19 18 18 18 18 18 18 18 17 17 17 17 17 17 17 17 17 17 17 17 16 16 16 16 16 16 15 15 15 15 15 15
15 15 16 15 13 14 15 16 18 19 21 21 21 20 19 18 19 18 18 18 18 18 18 18 17 17 17 17 17 17 17 17 17 17 17 17 16 16 16 16 16 16 16 16 15 15 15 15 15
15 15 15 13 13 14 17 18 18 20 21 21 20 20 19 18 18 18 19 18 18 18 18 17 17 17 17 17 17 17 17 17 17 17 17 16 16 16 16 16 15 15 15 15 15 15 15 15 15
15 15 15 13 14 15 17 18 18 19 21 21 20 18 18 19 19 19 18 18 18 18 18 17 17 17 17 17 17 17 17 16 16 16 16 16 16 16 16 15 15 15 15 15 15 15 15 15 15
15 15 13 13 14 15 16 18 19 19 20 20 19 17 18 18 19 19 18 18 18 18 17 17 17 17 17 17 16 16 16 16 16 16 16 16 16 16 15 15 15 15 15 15 15 15 15 15 15
14 13 12 13 14 16 17 19 19 19 19 19 19 17 17 18 18 18 18 18 18 18 17 17 17 17 17 17 16 16 16 16 16 16 16 15 15 15 15 15 15 15 15 15 15 15 15 15 15
13 12 12 14 15 16 18 19 19 18 18 19 19 16 17 17 18 18 18 18 17 17 17 17 16 16 16 16 16 16 16 16 16 15 15 15 15 15 15 15 15 15 15 15 15 15 15 15 14
14 12 14 14 15 16 18 19 19 19 18 19 20 17 17 17 17 17 17 17 17 17 17 17 16 16 16 16 16 16 16 16 15 15 15 15 15 15 15 15 15 15 15 15 15 14 14 14 14
14 12 13 14 15 17 18 18 19 19 19 19 19 19 19 18 17 17 16 16 17 17 17 17 16 16 16 16 16 16 15 15 15 15 15 15 15 15 15 15 15 14 14 14 14 14 14 14 14
13 12 13 15 16 17 17 17 18 18 17 17 18 19 18 17 17 17 17 17 17 17 16 16 16 16 16 16 16 15 15 15 15 15 15 15 15 15 14 14 14 14 14 14 14 14 14 14 14
13 12 14 15 16 17 17 17 18 17 16 17 18 18 17 17 17 17 17 17 17 17 17 16 16 16 16 16 16 15 15 15 15 15 15 14 14 14 14 14 14 14 14 14 14 14 14 14 14
12 13 14 15 16 16 16 16 17 17 18 18 19 18 17 17 17 17 17 17 17 16 16 16 16 16 16 16 16 15 15 15 15 15 14 14 14 14 14 14 14 14 14 13 13 13 13 13 13
12 13 14 15 16 16 16 16 16 16 18 18 18 17 17 17 17 17 17 17 16 16 16 16 16 16 16 16 15 15 15 15 15 15 14 14 14 14 14 14 14 13 13 13 13 13 13 13 13
12 13 14 15 15 15 15 15 15 16 17 17 17 17 17 17 17 17 16 16 16 16 16 16 16 16 16 16 15 15 15 15 15 14 14 14 14 14 14 14 13 13 13 13 13 13 13 13 13
13 12 12 13 14 14 15 14 14 16 16 16 16 17 17 17 17 17 17 16 16 16 16 16 16 16 16 15 15 15 15 15 15 14 14 14 14 14 13 13 13 13 13 13 13 13 13 12 12
12 12 11 12 13 14 14 13 14 16 15 15 16 16 16 16 16 17 17 16 16 16 16 16 16 16 15 15 15 15 15 15 14 14 14 14 13 13 13 13 13 13 13 13 12 12 12 12 12
10 10 10 12 12 12 12 12 13 15 15 14 15 15 16 16 16 16 16 16 16 16 16 16 15 15 15 15 15 15 14 14 14 14 14 13 13 13 13 13 13 12 12 12 12 12 12 12 12
9 9 10 11 12 12 12 12 12 14 14 14 14 15 15 15 16 16 16 16 16 16 16 16 15 15 15 15 14 14 14 14 14 13 13 13 13 13 12 12 12 12 12 12 12 12 11 11 11
10 10 11 11 12 12 11 11 12 13 13 13 13 14 15 15 15 16 16 15 15 15 15 15 15 15 15 14 14 14 14 14 13 13 13 13 13 12 12 12 12 12 12 12 11 11 11 11 10
10 10 10 11 12 12 11 11 11 11 12 13 13 14 14 15 15 15 15 15 15 15 15 15 15 15 14 14 14 14 14 13 13 13 12 12 12 12 12 12 12 12 11 11 11 11 10 10 10
10 10 10 11 11 12 11 11 11 11 12 13 14 14 14 14 14 14 15 15 14 14 15 15 14 14 14 14 14 13 13 12 12 12 12 12 12 12 12 12 11 11 11 11 11 10 10 10 9
9 10 11 11 10 9 10 9 10 11 11 11 12 13 14 14 14 14 14 14 14 14 14 14 14 14 14 13 13 13 13 12 12 12 12 12 11 11 11 11 11 11 11 10 10 10 9 9 9
10 11 10 10 10 9 9 9 9 10 10 11 11 12 13 14 14 14 14 14 14 14 14 14 13 13 13 13 13 13 12 12 12 12 12 11 11 11 11 11 11 10 10 10 10 9 9 9 8
10 10 9 8 8 8 9 8 9 9 10 11 10 12 13 13 13 14 14 14 13 13 13 13 13 13 13 13 12 12 12 12 12 11 11 11 11 11 11 10 10 10 10 10 9 9 9 8 8
9 8 8 8 7 8 8 9 9 10 10 11 11 12 12 13 13 13 13 13 13 13 13 12 12 12 12 12 12 12 12 12 11 11 11 11 11 11 10 10 10 9 9 9 9 8 8 8 8
8 8 7 8 7 7 8 8 9 10 10 11 12 12 12 12 12 12 12 13 13 12 12 12 12 12 12 12 12 11 11 11 11 11 11 11 10 10 10 10 9 9 9 9 8 8 8 8 7
8 8 8 7 7 7 7 8 9 10 9 9 10 10 11 11 12 12 12 12 12 12 12 12 11 11 11 11 11 11 11 10 10 10 10 10 10 10 9 9 9 9 8 8 8 8 7 7 7
8 8 7 7 7 8 8 8 8 9 9 9 8 9 10 10 11 11 11 11 11 11 11 11 11 11 11 11 11 11 10 10 10 10 10 10 10 9 9 9 8 8 8 8 7 7 7 7 6
7 7 7 7 6 7 7 8 9 8 8 8 8 9 9 10 10 10 10 11 11 11 11 11 10 10 10 10 10 10 10 10 10 9 9 9 9 9 8 8 8 8 7 7 7 7 6 6 6
7 7 6 6 6 6 6 8 9 7 8 8 8 8 9 9 9 9 9 10 10 10 10 10 10 10 10 10 10 10 9 9 9 9 9 8 8 8 8 8 7 7 7 6 6 6 6 6 6

GEFSSGP_850_meantemp_246.txt.gz
Temperature
15 15 15 16 13 12 14 15 15 16 17 18 19 19 18 17 18 19 19 19 19 18 18 17 17 17 17 17 17 17 17 17 17 17 17 17 17 16 16 16 16 16 15 15 15 15 15 15 15
14 15 15 15 12 13 14 14 15 16 18 18 18 18 18 18 18 19 18 18 18 18 18 17 17 17 17 17 17 17 17 17 17 17 17 17 16 16 16 16 15 15 15 15 15 15 15 15 15
14 14 15 12 12 13 16 16 15 16 18 18 18 18 18 18 18 18 18 18 18 18 17 17 17 17 17 17 17 17 17 17 17 17 16 16 16 16 16 15 15 15 15 15 15 15 15 15 15
14 14 14 12 13 13 15 16 15 16 18 18 18 17 17 18 18 18 18 18 18 18 17 17 17 16 16 16 17 17 17 17 17 16 16 16 16 16 15 15 15 15 15 15 15 15 15 15 15
14 14 12 12 13 13 13 15 16 16 16 17 17 16 17 18 18 18 18 18 18 17 17 17 16 16 16 16 16 16 16 16 16 16 16 16 16 15 15 15 15 15 15 15 14 14 14 14 14
13 11 11 12 13 14 14 16 16 16 16 17 17 16 17 18 18 18 18 18 17 17 17 16 16 16 16 16 16 16 16 16 16 16 16 16 16 15 15 15 15 15 15 15 14 14 14 14 14
12 11 11 12 13 14 15 16 16 15 15 17 17 16 16 17 17 17 17 17 17 17 16 16 16 16 16 16 16 16 16 16 16 16 16 15 15 15 15 15 15 15 15 14 14 14 14 14 14
13 11 12 12 13 14 16 17 17 17 16 18 18 16 16 17 17 17 17 16 16 16 16 16 16 16 16 16 16 16 16 16 16 15 15 15 15 15 15 15 15 14 14 14 14 14 14 14 14
13 11 11 12 13 14 15 16 17 17 17 17 17 17 18 17 17 16 16 16 16 16 16 16 15 15 15 15 15 15 15 15 15 15 15 15 15 15 15 14 14 14 14 14 14 14 14 14 13
12 11 12 13 14 14 15 15 16 16 15 16 16 17 17 17 16 16 16 16 16 16 16 15 15 15 15 15 15 15 15 15 15 15 15 15 15 15 14 14 14 14 14 14 14 14 13 13 13
11 11 12 13 14 15 15 15 16 15 15 16 17 17 17 16 16 16 16 16 16 16 16 16 15 15 15 15 15 15 15 15 15 15 15 14 14 14 14 14 14 14 14 14 13 13 13 13 13
10 11 12 13 14 15 15 15 15 15 16 17 18 18 17 16 16 16 16 16 16 16 16 16 15 15 15 15 15 15 15 15 14 14 14 14 14 14 14 14 14 14 14 13 13 13 13 13 13
11 11 12 13 14 14 14 14 14 15 16 17 17 17 17 16 16 16 15 15 16 16 16 16 15 15 15 15 15 15 15 15 14 14 14 14 14 14 14 14 13 13 13 13 13 13 13 13 13
11 11 12 12 13 13 13 13 14 15 16 16 16 16 16 16 16 15 15 15 15 16 16 15 15 15 15 15 15 15 15 15 14 14 14 14 14 14 14 13 13 13 13 13 13 13 13 13 12
11 11 11 11 12 12 13 13 12 15 15 15 15 15 15 15 15 16 16 16 16 16 16 15 15 15 15 15 14 14 14 14 14 14 14 14 14 13 13 13 13 13 13 13 12 12 12 12 12
10 10 10 11 11 12 12 12 12 14 14 13 14 14 14 15 15 16 16 16 16 15 15 15 15 15 15 14 14 14 14 14 14 14 14 14 13 13 13 13 13 13 12 12 12 12 12 12 12
9 9 9 10 11 11 11 11 12 13 13 12 13 14 14 14 15 15 15 15 15 15 15 15 15 15 15 15 14 14 14 14 14 14 14 13 13 13 13 13 13 12 12 12 12 12 12 11 11
8 8 9 9 10 10 10 10 11 12 12 12 12 13 13 14 15 15 15 15 15 15 15 15 15 15 15 14 14 14 14 13 13 13 13 13 13 13 13 12 12 12 12 12 11 11 11 11 11
8 8 9 9 10 10 9 10 10 11 10 10 11 12 13 14 14 14 14 14 14 14 15 15 15 14 14 14 14 14 13 13 13 13 13 13 13 12 12 12 12 12 12 11 11 11 11 11 10
8 8 8 9 10 10 9 9 10 9 10 11 11 12 13 13 14 14 14 14 14 14 14 14 14 14 14 14 14 14 13 13 13 13 13 12 12 12 12 12 12 12 11 11 11 11 10 10 10
8 8 8 8 9 9 9 9 9 9 10 11 11 12 13 13 13 14 14 14 14 14 14 14 14 14 14 14 13 13 13 13 12 12 12 12 12 12 12 12 11 11 11 11 11 10 10 10 10
8 8 9 9 8 8 9 8 9 9 9 9 10 11 12 13 13 14 14 14 14 14 14 14 14 14 13 13 13 13 13 13 13 12 12 12 12 11 11 11 11 11 11 11 10 10 10 10 9
8 8 8 8 8 7 8 8 8 8 9 9 9 10 12 13 13 13 14 14 14 14 14 13 13 13 13 13 13 13 12 12 12 12 12 12 11 11 11 11 11 11 10 10 10 10 10 9 9
8 8 7 7 7 7 7 7 8 7 9 9 9 10 11 12 12 13 13 13 13 13 13 13 13 13 12 12 12 12 12 12 12 12 11 11 11 11 11 11 10 10 10 10 10 9 9 9 9
7 7 7 7 7 7 7 7 8 8 8 9 9 10 10 11 12 12 12 12 12 12 12 12 12 12 12 12 12 11 11 11 11 11 11 11 11 11 10 10 10 10 10 9 9 9 9 9 8
7 7 7 7 7 6 6 7 7 8 8 9 9 9 10 10 11 11 12 12 12 12 12 12 12 12 12 11 11 11 11 11 11 10 10 10 10 10 10 10 10 9 9 9 9 9 8 8 8
6 6 7 6 6 6 6 6 7 8 7 7 7 8 8 9 10 11 11 11 11 11 12 12 11 11 11 11 11 11 10 10 10 10 10 10 10 10 10 9 9 9 9 9 8 8 8 8 7
7 6 6 6 6 7 7 6 7 8 7 6 6 6 7 8 9 10 10 10 11 11 11 11 11 11 11 11 10 10 10 10 10 10 9 9 9 9 9 9 9 8 8 8 8 8 7 7 7
6 6 6 5 6 6 7 7 7 7 6 6 5 6 7 7 8 9 9 9 10 10 10 10 10 10 10 10 10 10 9 9 9 9 9 9 9 9 9 8 8 8 8 7 7 7 7 6 6
6 5 5 6 5 5 5 6 7 5 5 5 5 6 6 7 7 8 8 8 9 9 9 10 9 9 9 9 9 9 9 9 9 9 9 9 8 8 8 8 8 7 7 7 7 6 6 6 6

GEFSSGP_850_meantemp_252.txt.gz
Temperature
15 15 15 16 20 21 22 23 23 22 22 22 22 23 24 25 25 23 19 18 18 18 17 17 17 17 17 17 17 17 17 17 17 17 17 17 16 16 16 16 16 16 15 16 15 15 15 15 15
14 15 15 18 21 21 22 23 22 23 22 20 20 21 23 23 20 18 18 18 18 18 17 17 17 17 17 17 17 17 17 17 17 17 16 16 16 16 16 16 16 16 15 15 15 15 15 15 15
14 15 16 19 20 22 23 22 22 21 20 20 21 21 22 21 19 18 18 18 17 17 17 17 17 17 17 17 17 17 17 17 16 16 16 16 16 16 16 16 16 16 15 15 15 15 15 15 15
14 15 17 19 20 22 22 22 21 21 20 20 21 22 20 18 17 17 18 17 17 17 16 17 17 17 16 16 17 17 17 16 16 16 16 16 16 16 16 15 15 15 15 15 15 15 15 15 15
14 17 18 19 20 21 21 20 20 21 21 20 21 22 20 17 17 18 17 17 17 16 16 16 16 16 16 16 16 16 16 16 16 16 16 16 15 15 15 15 15 15 15 15 15 14 15 15 15
15 17 19 20 20 21 21 19 20 21 21 20 20 21 19 17 17 17 17 16 16 16 16 16 16 16 16 16 16 16 16 16 16 16 16 15 15 15 15 15 15 15 15 14 14 14 14 14 14
16 17 19 20 20 20 20 19 20 21 21 20 20 21 19 16 16 17 16 16 16 16 16 16 16 16 16 16 16 16 16 16 16 16 15 15 15 15 15 15 15 14 14 14 14 14 14 14 14
14 17 18 19 19 20 20 19 19 20 21 19 19 21 19 16 16 16 16 15 15 15 15 15 15 15 15 15 16 16 16 15 15 15 15 15 15 15 14 14 14 14 14 14 14 14 14 14 14
13 16 17 19 19 20 19 19 18 17 19 18 17 18 17 16 16 16 15 15 15 15 15 15 15 15 15 15 15 15 15 15 15 15 15 15 14 14 14 14 14 14 14 14 14 14 14 14 14
14 16 17 18 19 19 18 19 18 18 19 18 17 16 16 16 15 15 15 15 15 15 15 15 15 15 15 15 15 15 15 15 14 14 14 14 14 14 14 14 14 14 14 14 14 14 13 13 13
14 15 17 16 16 17 17 18 17 19 19 19 18 16 15 15 15 15 15 15 15 15 15 15 15 15 15 15 15 15 15 14 14 14 14 14 14 14 14 14 14 14 14 13 13 13 13 13 13
14 15 15 16 15 15 16 17 17 18 18 17 17 17 15 15 15 15 15 15 14 14 15 15 15 15 15 15 15 14 14 14 14 14 14 14 14 14 14 14 14 14 13 13 13 13 13 13 13
14 14 14 14 14 14 15 16 16 16 16 16 16 16 15 15 15 15 14 14 14 14 15 15 15 15 15 15 14 14 14 14 14 14 14 14 14 13 13 13 13 13 13 13 13 13 13 13 12
14 14 14 14 14 14 15 15 15 16 15 15 15 15 15 15 15 14 14 14 14 14 14 15 15 15 15 15 14 14 14 14 14 14 14 14 13 13 13 13 13 13 13 13 13 12 12 12 12
12 13 14 14 14 14 15 15 16 15 15 15 15 15 15 15 14 14 14 14 14 14 14 15 15 15 14 14 14 14 14 14 14 14 14 13 13 13 13 13 13 13 13 12 12 12 12 12 12
13 13 13 14 14 14 15 15 17 15 15 15 15 15 15 14 14 14 14 14 14 14 14 15 15 15 14 14 14 14 14 14 14 14 13 13 13 13 13 13 13 13 12 12 12 12 12 12 12
12 13 13 14 14 14 14 15 16 14 15 15 15 15 15 14 14 14 14 14 14 14 14 14 15 14 14 14 14 14 14 14 14 13 13 13 13 13 13 13 13 12 12 12 12 12 12 11 11
12 13 13 14 14 14 14 15 15 14 14 16 15 15 14 14 14 14 14 14 14 14 14 14 14 14 14 14 14 14 13 13 13 13 13 13 13 13 13 12 12 12 12 12 11 11 11 11 11
13 12 13 13 13 13 14 15 15 15 14 15 15 15 15 14 14 13 13 13 13 14 14 14 14 14 14 14 14 13 13 13 13 13 13 13 13 13 12 12 12 12 12 11 11 11 11 11 10
11 12 12 12 12 13 13 14 15 15 15 15 15 15 15 14 13 13 13 13 13 13 14 14 14 14 14 14 13 13 13 13 13 13 13 13 12 12 12 12 12 12 11 11 11 11 11 10 10
11 11 12 12 12 12 12 14 15 15 14 14 14 14 14 13 13 13 13 13 13 13 14 14 14 14 14 13 13 13 13 13 12 12 12 12 12 12 12 12 11 11 11 11 11 10 10 10 10
10 11 12 11 11 12 12 13 15 15 14 14 14 14 14 13 13 12 12 13 13 13 13 13 13 13 13 13 13 13 12 12 12 12 12 12 12 12 12 11 11 11 11 11 10 10 10 10 9
11 11 11 11 11 11 12 12 15 14 14 15 15 14 13 12 12 12 12 13 13 13 13 13 13 13 13 13 12 12 12 12 12 12 12 12 12 11 11 11 11 11 11 10 10 10 10 9 9
10 10 10 10 10 10 12 12 14 14 15 15 15 13 12 12 11 11 11 12 12 12 13 13 13 12 12 12 12 12 12 12 11 11 11 11 11 11 11 11 11 10 10 10 10 10 9 9 9
9 9 9 9 9 11 12 12 14 14 14 14 14 13 11 11 10 10 11 11 11 12 12 12 12 12 12 12 12 11 11 11 11 11 11 10 10 10 11 10 10 10 10 10 9 9 9 9 8
9 10 10 10 11 12 11 12 14 12 12 11 11 11 10 10 9 9 10 10 11 11 11 11 11 11 11 11 11 11 11 10 10 10 10 10 10 10 10 10 10 10 9 9 9 9 9 8 8
8 9 10 10 10 11 11 12 12 11 11 10 10 10 9 9 8 9 9 9 10 11 11 11 11 11 11 11 10 10 10 10 10 10 10 10 9 10 9 9 9 9 9 9 9 8 8 8 8
9 9 9 9 10 11 12 11 12 11 10 10 10 9 8 8 8 8 8 9 9 10 10 10 10 10 10 10 10 10 10 9 9 9 9 9 9 9 9 9 9 9 9 8 8 8 8 7 7
7 7 8 9 10 11 11 12 11 10 10 9 9 8 7 7 7 7 7 8 8 8 9 9 9 10 10 10 9 9 9 9 9 9 9 9 8 8 8 8 8 8 8 8 8 7 7 7 7
7 7 8 8 8 9 11 11 9 9 9 8 8 7 6 6 6 6 6 7 7 7 8 8 9 9 9 9 9 9 9 9 8 8 8 8 8 8 8 8 8 8 7 7 7 7 7 6 6

GEFSSGP_850_meantemp_258.txt.gz
Temperature
16 16 16 17 17 18 20 23 25 25 26 26 26 26 25 24 23 20 19 19 19 19 19 18 18 18 18 17 17 17 17 17 17 17 17 17 16 16 16 16 16 16 16 15 15 15 15 15 15
16 15 16 17 18 18 21 23 24 25 25 25 25 25 25 23 21 20 19 18 18 18 18 18 18 18 17 17 17 17 17 17 16 16 16 16 16 16 16 16 16 16 16 15 15 15 15 15 15
15 15 17 18 18 19 22 24 24 25 25 24 24 25 24 22 20 19 19 18 18 18 18 18 18 17 17 17 17 17 17 16 16 16 16 16 16 16 16 16 16 16 16 15 15 15 15 15 15
14 16 17 18 19 21 23 24 24 24 24 24 24 23 22 21 20 19 19 18 17 17 18 18 17 17 17 17 17 17 16 16 16 16 16 16 16 16 16 16 15 15 15 15 15 15 15 15 15
14 16 17 18 19 21 23 24 24 23 23 24 24 22 20 19 19 19 18 18 17 17 17 17 17 17 17 17 17 16 16 16 16 16 16 16 16 16 15 15 15 15 15 15 15 15 15 15 15
15 17 17 18 20 22 23 24 24 23 23 24 23 22 19 19 19 18 18 17 17 17 17 17 17 16 16 16 16 16 16 16 16 16 16 15 15 15 15 15 15 15 14 14 14 15 15 15 14
15 16 17 19 20 21 23 23 23 23 23 23 23 22 19 18 18 18 17 17 17 16 16 17 16 16 16 16 16 16 16 16 15 15 15 15 15 15 15 15 15 14 14 14 14 15 15 14 14
15 16 17 18 20 21 22 23 23 23 23 23 23 21 18 17 17 17 17 17 16 16 16 16 16 16 16 16 16 16 15 15 15 15 15 15 15 15 15 15 14 14 14 14 14 14 14 14 14
14 15 16 18 19 21 22 22 22 22 22 22 21 20 19 18 17 17 17 16 16 16 16 16 16 16 16 16 15 15 15 15 15 15 15 15 15 15 14 14 14 14 14 14 14 14 14 14 14
14 14 16 19 20 20 21 21 21 21 21 21 19 18 18 17 17 17 16 16 16 15 15 15 15 15 15 15 15 15 15 15 15 15 15 14 14 14 14 14 14 14 14 14 14 14 14 14 13
14 15 17 18 19 19 20 20 20 20 19 20 18 17 17 16 16 16 16 16 15 15 15 15 15 15 15 15 15 15 15 15 15 14 14 14 14 14 14 14 14 14 14 14 14 13 13 13 13
15 16 17 17 17 18 18 19 19 19 19 19 19 18 17 16 16 16 16 16 15 15 15 15 15 15 15 15 15 15 15 15 14 14 14 14 14 14 14 14 14 14 14 13 13 13 13 13 13
14 15 16 17 17 17 18 18 18 18 18 18 18 17 17 16 16 16 16 16 16 15 15 15 15 15 15 15 15 14 14 14 14 14 14 14 14 14 14 14 13 13 13 13 13 13 13 13 13
15 15 16 16 16 16 17 17 17 18 18 18 17 17 16 16 16 16 16 16 15 15 15 15 15 15 15 15 14 14 14 14 14 14 14 14 14 13 13 13 13 13 13 13 13 13 13 13 12
15 14 15 15 16 16 16 15 16 17 17 17 17 17 17 16 16 16 16 16 15 15 15 15 15 15 15 14 14 14 14 14 14 14 14 14 13 13 13 13 13 13 13 13 13 13 12 12 12
14 13 13 15 15 16 15 14 16 17 17 17 17 17 17 17 16 16 16 16 15 15 15 15 15 15 14 14 14 14 14 14 14 14 13 13 13 13 13 13 13 13 13 13 12 12 12 12 12
12 12 12 14 15 15 15 14 16 17 17 17 17 17 17 17 17 16 16 16 15 15 15 15 14 14 14 14 14 14 14 14 14 14 13 13 13 13 13 13 13 13 12 12 12 12 12 12 12
11 12 13 13 15 15 14 14 15 17 17 17 17 17 17 17 17 16 16 16 15 15 15 14 14 14 14 14 14 14 14 14 13 13 13 13 13 13 13 13 12 12 12 12 12 12 12 11 11
13 13 13 14 15 14 14 14 15 16 16 16 17 17 17 17 17 16 16 15 15 15 14 14 14 14 14 14 14 14 13 13 13 13 13 13 13 12 12 12 12 12 12 12 12 12 11 11 11
12 12 13 13 14 14 13 14 15 15 16 16 17 17 17 17 16 16 15 15 15 14 14 14 14 14 14 14 14 13 13 13 13 13 13 13 12 12 12 12 12 12 12 11 11 11 11 11 10
11 12 12 12 13 14 13 13 14 15 16 16 16 17 17 17 16 15 15 14 14 14 14 13 13 14 14 13 13 13 13 13 12 12 12 12 12 12 12 12 12 12 11 11 11 11 11 10 10
10 12 12 12 11 11 12 11 13 14 14 15 16 16 16 16 16 15 15 14 14 13 13 13 13 13 13 13 13 13 13 13 13 12 12 12 12 12 12 11 11 11 11 11 11 10 10 10 10
11 12 12 11 11 11 11 11 12 14 14 14 15 16 16 16 15 15 14 14 13 13 13 13 13 13 13 13 13 13 12 12 12 12 12 12 12 12 11 11 11 11 11 11 10 10 10 10 9
11 11 11 11 10 9 11 11 11 13 14 14 14 15 15 15 15 14 14 13 13 13 13 12 12 12 12 12 12 12 12 12 12 11 11 11 11 11 11 11 11 11 10 10 10 10 9 9 9
10 9 8 8 8 9 12 11 11 13 14 14 14 14 14 14 14 13 13 12 12 12 12 12 12 12 12 12 12 12 12 12 11 11 11 11 11 11 11 11 10 10 10 10 10 9 9 9 9
9 9 8 8 8 10 12 11 11 12 12 13 13 13 13 13 13 12 12 12 11 11 11 11 11 11 11 11 11 11 11 11 11 11 11 11 10 10 10 10 10 10 10 9 9 9 9 9 8
9 9 9 9 9 9 10 11 11 11 11 11 11 11 11 11 11 11 11 11 11 11 11 11 11 11 11 11 10 10 10 10 10 10 10 10 10 10 10 10 10 9 9 9 9 8 8 8 8
8 9 8 8 8 9 10 10 9 10 10 10 10 10 10 10 10 10 10 10 10 10 10 10 10 10 10 10 10 10 10 10 10 10 9 9 9 9 9 9 9 9 9 8 8 8 8 8 7
7 8 8 8 8 8 9 9 10 9 9 9 8 9 9 9 9 9 9 9 9 9 9 9 9 9 9 9 9 9 9 9 9 9 9 9 9 9 9 8 8 8 8 8 8 7 7 7 7
7 7 7 7 7 8 8 8 8 8 8 8 8 8 8 8 8 8 8 8 8 8 8 8 8 8 8 9 9 9 9 9 9 9 9 9 8 8 8 8 8 8 7 7 7 7 7 7 6

GEFSSGP_850_meantemp_264.txt.gz
Temperature
15 16 16 17 14 13 14 16 17 19 20 21 22 21 19 19 20 20 19 19 19 18 18 18 18 18 18 18 17 17 17 17 17 17 17 17 16 16 16 16 16 16 15 15 15 15 15 15 15
15 15 16 16 13 14 14 15 18 19 21 22 22 21 19 18 19 18 18 18 18 18 18 18 18 18 18 18 17 17 17 17 17 17 17 16 16 16 16 16 15 15 15 15 15 15 15 15 14
15 15 15 12 13 14 16 17 18 19 21 21 21 20 19 19 18 18 19 18 18 18 18 18 18 18 17 17 17 17 17 17 16 17 16 16 16 16 16 16 15 15 15 15 15 15 15 15 14
14 15 14 12 14 14 16 18 18 19 21 21 20 18 18 19 19 19 19 18 18 18 17 17 17 17 17 17 17 17 17 16 16 16 16 16 16 16 16 16 15 15 15 15 15 15 15 15 14
14 14 12 12 13 15 16 18 19 18 19 20 19 17 18 18 19 19 18 18 18 17 17 17 17 17 17 17 17 17 16 16 16 16 16 16 16 16 16 15 15 15 15 15 15 15 15 14 14
13 12 11 12 14 15 16 18 19 18 19 19 19 17 17 18 18 18 18 18 18 17 17 17 17 17 17 17 17 16 16 16 16 16 16 16 16 16 15 15 15 15 15 15 15 15 14 14 14
12 11 12 13 14 15 17 19 18 17 18 19 19 16 16 17 17 17 17 17 17 17 17 16 16 16 16 16 16 16 16 16 16 16 16 16 16 15 15 15 15 15 15 15 14 14 14 14 14
13 11 12 13 14 15 17 18 19 18 18 19 19 16 16 16 17 17 17 16 16 16 16 16 16 16 16 16 16 16 16 16 16 15 15 15 15 15 15 15 15 15 15 15 14 14 14 14 14
12 11 12 13 14 15 17 17 18 18 18 18 18 18 18 17 16 16 16 16 16 16 16 16 16 16 16 16 16 15 15 15 15 15 15 15 15 15 15 15 15 14 14 14 14 14 14 14 14
12 10 12 14 14 15 16 17 17 17 16 16 17 17 17 16 16 16 16 16 16 16 16 16 16 16 16 16 15 15 15 15 15 15 15 15 15 15 15 15 14 14 14 14 14 14 14 14 13
11 11 12 14 15 15 16 16 17 16 15 15 16 16 16 16 16 16 16 16 16 16 15 15 15 16 16 16 15 15 15 15 15 15 15 15 15 15 14 14 14 14 14 14 14 14 14 13 13
11 11 13 14 14 15 15 16 16 16 17 18 18 17 16 15 15 15 15 15 15 15 15 15 15 15 15 15 15 15 15 15 15 15 15 15 15 14 14 14 14 14 14 14 14 14 13 13 13
10 11 13 13 14 14 15 15 15 15 17 17 17 16 16 15 15 15 15 15 15 15 15 15 15 15 15 15 15 15 15 15 15 14 14 14 14 14 14 14 14 14 14 14 13 13 13 13 13
10 11 12 13 13 14 14 14 14 15 16 16 16 15 15 15 15 15 15 15 15 15 15 15 15 15 15 15 15 15 15 15 14 14 14 14 14 14 14 14 13 13 13 13 13 13 13 13 13
11 10 11 12 13 13 14 13 13 15 15 15 15 15 15 15 15 15 15 15 15 15 15 15 15 15 15 15 15 15 15 14 14 14 14 14 14 14 14 13 13 13 13 13 13 13 13 12 12
10 9 9 11 12 13 12 11 13 15 15 14 14 15 15 15 15 15 15 15 15 15 15 15 15 15 15 15 15 15 14 14 14 14 14 14 14 13 13 13 13 13 13 13 13 12 12 12 12
8 8 9 10 11 12 11 11 12 14 14 13 14 14 14 14 14 15 15 15 15 15 15 15 15 15 15 15 15 14 14 14 14 14 14 14 13 13 13 13 13 13 13 12 12 12 12 12 12
7 8 8 9 11 11 11 11 11 13 13 13 13 14 14 14 14 15 15 15 15 15 15 15 15 14 14 14 14 14 14 14 14 14 14 13 13 13 13 13 13 12 12 12 12 12 12 12 11
8 8 8 9 11 10 10 10 11 12 12 12 12 13 13 14 15 14 14 15 15 15 15 15 14 14 14 14 14 14 14 14 13 13 13 13 13 13 13 13 12 12 12 12 12 12 11 11 11
8 8 8 9 10 10 10 10 10 11 11 12 13 13 13 14 14 14 14 14 14 14 14 14 14 14 14 14 14 14 14 14 13 13 13 13 13 13 12 12 12 12 12 12 11 11 11 11 11
8 8 8 8 9 10 9 9 10 11 12 12 13 13 13 13 14 14 14 14 14 14 14 14 14 14 14 14 13 13 13 13 13 13 12 12 12 12 12 12 12 12 11 11 11 11 11 11 10
7 8 9 9 8 8 9 8 9 10 10 11 11 12 12 13 13 14 14 14 14 14 14 14 14 14 14 13 13 13 13 13 13 13 12 12 12 12 12 12 11 11 11 11 11 11 10 10 10
7 9 8 8 8 7 8 8 8 9 9 10 9 11 11 12 12 13 13 14 14 14 14 14 14 14 14 13 13 13 13 13 13 12 12 12 12 11 11 11 11 11 11 11 10 10 10 10 10
8 8 7 7 7 7 7 8 8 8 9 9 9 10 11 11 12 12 13 13 14 14 13 14 14 14 13 13 13 13 13 12 12 12 12 11 11 11 11 11 10 10 10 10 10 10 9 9 9
7 6 6 6 6 6 7 8 8 8 8 8 8 9 10 11 11 12 12 12 13 13 13 13 13 13 13 13 13 12 12 12 12 12 12 11 11 11 11 10 10 10 10 10 9 9 9 9 8
6 6 6 6 6 6 7 7 7 7 7 8 9 9 9 10 11 11 11 12 12 12 12 13 12 12 12 12 12 12 12 12 11 11 11 11 11 11 10 10 10 10 10 9 9 9 9 8 8
6 6 6 5 5 5 6 6 7 7 7 7 7 7 8 9 10 10 11 11 11 12 12 12 12 12 12 12 12 11 11 11 11 11 10 10 10 10 10 10 10 9 9 9 9 8 8 8 8
6 6 5 5 5 6 6 6 6 6 6 6 6 6 7 8 9 9 10 10 10 11 11 11 11 11 11 11 11 11 11 10 10 10 10 10 10 10 9 9 9 9 9 9 8 8 8 8 7
5 5 5 5 5 5 6 6 6 5 5 5 5 6 6 7 8 8 9 9 9 10 10 10 10 10 10 10 10 10 10 10 10 10 9 9 9 9 9 9 9 9 8 8 8 8 7 7 7
5 4 4 4 4 4 4 5 5 4 4 4 4 5 5 6 6 7 8 8 8 9 9 9 9 9 10 10 10 9 9 9 9 9 9 9 9 8 8 8 8 8 8 8 8 7 7 7 7